BOE606M KGYY-KCLT

Flight info

Callsign BOE606M
Flight time 1h 15m
Altitude 37000
Route ELANR9 EMEGE FLM TAFTT PARQR4
Aircraft B737/M-SDE2E3FGHIRWXY/LB1D1

Departure

Time 2026-05-06 04:25
Airport Gary/Chicago International Airport (KGYY)

Arrival

Time 2026-05-06 05:40
Airport Charlotte Douglas International Airport (KCLT)
Time Latitude Longitude Altitude Speed Heading
2026-05-06 04:10 41.62246 -87.41756 600 ft 0 kts 208°
2026-05-06 04:18 41.62244 -87.41758 600 ft 1 kts 217°
2026-05-06 04:18 41.62240 -87.41768 601 ft 1 kts 245°
2026-05-06 04:18 41.62237 -87.41786 601 ft 3 kts 254°
2026-05-06 04:18 41.62223 -87.41810 601 ft 4 kts 217°
2026-05-06 04:19 41.62193 -87.41837 602 ft 6 kts 214°
2026-05-06 04:19 41.62153 -87.41874 603 ft 7 kts 213°
2026-05-06 04:19 41.62113 -87.41871 603 ft 7 kts 144°
2026-05-06 04:19 41.62085 -87.41816 602 ft 8 kts 123°
2026-05-06 04:20 41.62042 -87.41732 601 ft 14 kts 124°
2026-05-06 04:20 41.61975 -87.41600 600 ft 19 kts 124°
2026-05-06 04:20 41.61897 -87.41449 599 ft 20 kts 124°
2026-05-06 04:20 41.61821 -87.41299 600 ft 19 kts 124°
2026-05-06 04:21 41.61748 -87.41156 600 ft 18 kts 124°
2026-05-06 04:21 41.61673 -87.41007 600 ft 20 kts 124°
2026-05-06 04:21 41.61589 -87.40843 600 ft 22 kts 124°
2026-05-06 04:21 41.61502 -87.40672 599 ft 22 kts 123°
2026-05-06 04:22 41.61418 -87.40505 599 ft 21 kts 124°
2026-05-06 04:22 41.61335 -87.40344 599 ft 21 kts 124°
2026-05-06 04:22 41.61256 -87.40187 599 ft 20 kts 124°
2026-05-06 04:23 41.61160 -87.40007 599 ft 7 kts 140°
2026-05-06 04:23 41.61117 -87.40015 600 ft 7 kts 215°
2026-05-06 04:23 41.61080 -87.40051 601 ft 7 kts 218°
2026-05-06 04:23 41.61081 -87.40103 600 ft 7 kts 307°
2026-05-06 04:24 41.61106 -87.40152 600 ft 7 kts 304°
2026-05-06 04:24 41.61170 -87.40275 600 ft 39 kts 304°
2026-05-06 04:24 41.61487 -87.40898 599 ft 120 kts 304°
2026-05-06 04:24 41.62075 -87.42044 706 ft 173 kts 304°
2026-05-06 04:25 41.62785 -87.43416 1443 ft 187 kts 304°
2026-05-06 04:25 41.63561 -87.44917 2085 ft 207 kts 304°
2026-05-06 04:25 41.64399 -87.46674 2289 ft 241 kts 301°
2026-05-06 04:25 41.65271 -87.48690 2908 ft 254 kts 300°
2026-05-06 04:26 41.66141 -87.50748 3511 ft 254 kts 295°
2026-05-06 04:26 41.66423 -87.53089 4089 ft 260 kts 266°
2026-05-06 04:26 41.65805 -87.55384 4733 ft 270 kts 238°
2026-05-06 04:26 41.64419 -87.57096 5358 ft 277 kts 210°
2026-05-06 04:27 41.62568 -87.57841 6208 ft 282 kts 187°
2026-05-06 04:27 41.60599 -87.57913 7235 ft 284 kts 180°
2026-05-06 04:27 41.58619 -87.57827 8246 ft 286 kts 179°
2026-05-06 04:27 41.56650 -87.57721 9222 ft 289 kts 179°
2026-05-06 04:28 41.54628 -87.57623 10209 ft 291 kts 180°
2026-05-06 04:28 41.52547 -87.57538 10802 ft 311 kts 182°
2026-05-06 04:28 41.50295 -87.57463 11185 ft 333 kts 183°
2026-05-06 04:28 41.47953 -87.57389 11999 ft 339 kts 183°
2026-05-06 04:29 41.45592 -87.57315 12990 ft 339 kts 184°
2026-05-06 04:29 41.44025 -87.57268 13654 ft 340 kts 185°
2026-05-06 04:29 41.41653 -87.57119 14598 ft 345 kts 181°
2026-05-06 04:29 41.39246 -87.56738 15501 ft 351 kts 179°
2026-05-06 04:30 41.36010 -87.56145 16693 ft 356 kts 179°
2026-05-06 04:30 41.34347 -87.55836 17270 ft 358 kts 179°
2026-05-06 04:30 41.31863 -87.55383 17789 ft 361 kts 180°
2026-05-06 04:30 41.29344 -87.54935 18415 ft 368 kts 180°
2026-05-06 04:31 41.26833 -87.54494 19292 ft 369 kts 180°
2026-05-06 04:31 41.24280 -87.54049 20112 ft 372 kts 180°
2026-05-06 04:31 41.21699 -87.53602 20870 ft 376 kts 180°
2026-05-06 04:31 41.19081 -87.53104 21557 ft 383 kts 178°
2026-05-06 04:32 41.16442 -87.52453 22222 ft 389 kts 177°
2026-05-06 04:32 41.13776 -87.51728 22869 ft 394 kts 176°
2026-05-06 04:32 41.11072 -87.50972 23533 ft 398 kts 176°
2026-05-06 04:32 41.08380 -87.50222 24140 ft 402 kts 177°
2026-05-06 04:33 41.05621 -87.49462 24720 ft 406 kts 177°
2026-05-06 04:33 41.02836 -87.48704 25268 ft 410 kts 177°
2026-05-06 04:33 41.00021 -87.47945 25812 ft 414 kts 177°
2026-05-06 04:33 40.97179 -87.47182 26326 ft 418 kts 178°
2026-05-06 04:34 40.94306 -87.46414 26795 ft 423 kts 178°
2026-05-06 04:34 40.91401 -87.45639 27268 ft 427 kts 178°
2026-05-06 04:34 40.88478 -87.44859 27735 ft 431 kts 178°
2026-05-06 04:34 40.85567 -87.44083 28176 ft 434 kts 178°
2026-05-06 04:35 40.82588 -87.43290 28614 ft 438 kts 178°
2026-05-06 04:35 40.79585 -87.42491 29023 ft 441 kts 178°
2026-05-06 04:35 40.76555 -87.41685 29416 ft 445 kts 178°
2026-05-06 04:35 40.73504 -87.40875 29779 ft 448 kts 178°
2026-05-06 04:36 40.70427 -87.40058 30128 ft 452 kts 178°
2026-05-06 04:36 40.67330 -87.39237 30431 ft 456 kts 178°
2026-05-06 04:36 40.64204 -87.38409 30733 ft 459 kts 179°
2026-05-06 04:36 40.61092 -87.37585 31031 ft 463 kts 179°
2026-05-06 04:37 40.57931 -87.36747 31418 ft 463 kts 179°
2026-05-06 04:37 40.54774 -87.35910 31834 ft 463 kts 179°
2026-05-06 04:37 40.51611 -87.35074 32204 ft 464 kts 180°
2026-05-06 04:37 40.48454 -87.34229 32564 ft 467 kts 178°
2026-05-06 04:38 40.45296 -87.32920 32844 ft 485 kts 169°
2026-05-06 04:38 40.42224 -87.30931 33136 ft 502 kts 159°
2026-05-06 04:38 40.39295 -87.28323 33521 ft 509 kts 155°
2026-05-06 04:38 40.36436 -87.25588 33834 ft 511 kts 154°
2026-05-06 04:39 40.33571 -87.22802 34072 ft 514 kts 154°
2026-05-06 04:39 40.30679 -87.20007 34351 ft 515 kts 154°
2026-05-06 04:39 40.27779 -87.17239 34711 ft 513 kts 155°
2026-05-06 04:39 40.24921 -87.14545 35094 ft 511 kts 155°
2026-05-06 04:40 40.22027 -87.11842 35440 ft 510 kts 156°
2026-05-06 04:40 40.19139 -87.09158 35797 ft 508 kts 156°
2026-05-06 04:40 40.16253 -87.06482 36149 ft 507 kts 156°
2026-05-06 04:40 40.13384 -87.03824 36500 ft 505 kts 156°
2026-05-06 04:41 40.10515 -87.01167 36803 ft 504 kts 156°
2026-05-06 04:41 40.07636 -86.98502 36954 ft 508 kts 156°
2026-05-06 04:41 40.04735 -86.95822 36950 ft 511 kts 156°
2026-05-06 04:42 39.98975 -86.90490 36948 ft 507 kts 156°
2026-05-06 04:42 39.93140 -86.85513 36958 ft 497 kts 160°
2026-05-06 04:43 39.87257 -86.80797 36955 ft 498 kts 160°
2026-05-06 04:43 39.81364 -86.76018 36949 ft 499 kts 159°
2026-05-06 04:44 39.75478 -86.71185 36935 ft 503 kts 156°
2026-05-06 04:44 39.72697 -86.68313 36935 ft 517 kts 146°
2026-05-06 04:44 39.70237 -86.64927 36933 ft 526 kts 137°
2026-05-06 04:45 39.66296 -86.56832 36937 ft 532 kts 125°
2026-05-06 04:45 39.62753 -86.48387 36914 ft 532 kts 124°
2026-05-06 04:46 39.59185 -86.39973 36910 ft 531 kts 125°
2026-05-06 04:46 39.55585 -86.31681 36897 ft 530 kts 126°
2026-05-06 04:47 39.51943 -86.23389 36900 ft 529 kts 126°
2026-05-06 04:47 39.48288 -86.15091 36894 ft 529 kts 126°
2026-05-06 04:48 39.44647 -86.06835 36895 ft 528 kts 126°
2026-05-06 04:48 39.40997 -85.98575 36887 ft 528 kts 126°
2026-05-06 04:49 39.37347 -85.90334 36882 ft 528 kts 126°
2026-05-06 04:49 39.33712 -85.82151 36878 ft 527 kts 126°
2026-05-06 04:50 39.30052 -85.73931 36879 ft 527 kts 126°
2026-05-06 04:50 39.26404 -85.65762 36875 ft 527 kts 126°
2026-05-06 04:51 39.22740 -85.57579 36865 ft 527 kts 126°
2026-05-06 04:51 39.19064 -85.49388 36864 ft 526 kts 126°
2026-05-06 04:52 39.15391 -85.41229 36862 ft 526 kts 126°
2026-05-06 04:52 39.11711 -85.33072 36859 ft 526 kts 126°
2026-05-06 04:53 39.08046 -85.24969 36859 ft 526 kts 126°
2026-05-06 04:53 39.04360 -85.16842 36857 ft 526 kts 126°
2026-05-06 04:54 39.00663 -85.08713 36859 ft 526 kts 125°
2026-05-06 04:54 38.96957 -85.00580 36856 ft 526 kts 125°
2026-05-06 04:55 38.93243 -84.92455 36846 ft 527 kts 125°
2026-05-06 04:55 38.89524 -84.84337 36837 ft 527 kts 125°
2026-05-06 04:56 38.85819 -84.76272 36834 ft 528 kts 125°
2026-05-06 04:56 38.82082 -84.68156 36817 ft 528 kts 125°
2026-05-06 04:57 38.78340 -84.60052 36830 ft 528 kts 125°
2026-05-06 04:57 38.74588 -84.51944 36822 ft 528 kts 125°
2026-05-06 04:58 38.70830 -84.43844 36832 ft 528 kts 125°
2026-05-06 04:58 38.67073 -84.35764 36830 ft 528 kts 125°
2026-05-06 04:59 38.62936 -84.28144 36829 ft 517 kts 139°
2026-05-06 04:59 38.57995 -84.21489 36835 ft 515 kts 141°
2026-05-06 05:00 38.53012 -84.14909 36836 ft 516 kts 141°
2026-05-06 05:00 38.48049 -84.08267 36839 ft 517 kts 140°
2026-05-06 05:01 38.43139 -84.01640 36846 ft 518 kts 140°
2026-05-06 05:01 38.38189 -83.94957 36851 ft 518 kts 140°
2026-05-06 05:02 38.33227 -83.88280 36865 ft 518 kts 140°
2026-05-06 05:02 38.28256 -83.81609 36871 ft 519 kts 140°
2026-05-06 05:03 38.23282 -83.74949 36886 ft 519 kts 140°
2026-05-06 05:03 38.18300 -83.68293 36879 ft 520 kts 140°
2026-05-06 05:04 38.13308 -83.61638 36888 ft 520 kts 140°
2026-05-06 05:04 38.08309 -83.54986 36891 ft 520 kts 140°
2026-05-06 05:05 38.03324 -83.48367 36880 ft 521 kts 140°
2026-05-06 05:05 37.98317 -83.41733 36883 ft 520 kts 140°
2026-05-06 05:06 37.93310 -83.35113 36885 ft 520 kts 140°
2026-05-06 05:06 37.88297 -83.28500 36885 ft 519 kts 140°
2026-05-06 05:07 37.83294 -83.21912 36896 ft 519 kts 140°
2026-05-06 05:07 37.78315 -83.15371 36890 ft 519 kts 140°
2026-05-06 05:08 37.73295 -83.08789 36890 ft 519 kts 140°
2026-05-06 05:08 37.68280 -83.02227 36899 ft 519 kts 140°
2026-05-06 05:09 37.63259 -82.95670 36901 ft 519 kts 139°
2026-05-06 05:09 37.58242 -82.89130 36902 ft 519 kts 139°
2026-05-06 05:10 37.53216 -82.82610 36903 ft 518 kts 140°
2026-05-06 05:10 37.48118 -82.76290 36910 ft 517 kts 141°
2026-05-06 05:11 37.42926 -82.69975 36916 ft 517 kts 141°
2026-05-06 05:11 37.37757 -82.63666 36900 ft 518 kts 141°
2026-05-06 05:12 37.32594 -82.57344 36909 ft 518 kts 141°
2026-05-06 05:12 37.27466 -82.51071 36916 ft 518 kts 141°
2026-05-06 05:13 37.22307 -82.44774 36947 ft 517 kts 141°
2026-05-06 05:13 37.17141 -82.38484 36955 ft 516 kts 141°
2026-05-06 05:14 37.11986 -82.32219 36963 ft 516 kts 141°
2026-05-06 05:14 37.06843 -82.25982 36967 ft 516 kts 141°
2026-05-06 05:15 37.01388 -82.20234 36855 ft 508 kts 158°
2026-05-06 05:15 36.98273 -82.18122 36640 ft 510 kts 160°
2026-05-06 05:15 36.95111 -82.16089 36387 ft 509 kts 160°
2026-05-06 05:15 36.91986 -82.14006 36132 ft 507 kts 159°
2026-05-06 05:16 36.88940 -82.11898 35889 ft 506 kts 158°
2026-05-06 05:16 36.85858 -82.09751 35642 ft 505 kts 158°
2026-05-06 05:16 36.82782 -82.07627 34914 ft 507 kts 158°
2026-05-06 05:16 36.79693 -82.05508 34147 ft 507 kts 158°
2026-05-06 05:17 36.76594 -82.03387 33363 ft 508 kts 158°
2026-05-06 05:17 36.74537 -82.01981 32809 ft 508 kts 158°
2026-05-06 05:17 36.71427 -81.99855 31926 ft 510 kts 158°
2026-05-06 05:17 36.68318 -81.97728 31009 ft 510 kts 157°
2026-05-06 05:18 36.65199 -81.95595 30126 ft 509 kts 157°
2026-05-06 05:18 36.62105 -81.93476 29467 ft 501 kts 157°
2026-05-06 05:18 36.59080 -81.91406 28769 ft 494 kts 157°
2026-05-06 05:18 36.56091 -81.89363 28070 ft 481 kts 157°
2026-05-06 05:19 36.53203 -81.87392 27411 ft 469 kts 157°
2026-05-06 05:19 36.50351 -81.85453 26741 ft 463 kts 157°
2026-05-06 05:19 36.47543 -81.83547 26288 ft 453 kts 157°
2026-05-06 05:19 36.44837 -81.81703 26150 ft 435 kts 157°
2026-05-06 05:20 36.42245 -81.79942 25725 ft 427 kts 157°
2026-05-06 05:20 36.39622 -81.78166 25228 ft 422 kts 157°
2026-05-06 05:20 36.37089 -81.76454 24672 ft 417 kts 156°
2026-05-06 05:20 36.34558 -81.74743 24155 ft 412 kts 157°
2026-05-06 05:21 36.32050 -81.73048 23633 ft 408 kts 156°
2026-05-06 05:21 36.29565 -81.71369 23102 ft 404 kts 156°
2026-05-06 05:21 36.27102 -81.69706 22567 ft 401 kts 156°
2026-05-06 05:21 36.24668 -81.68063 22036 ft 397 kts 156°
2026-05-06 05:22 36.22247 -81.66431 21513 ft 393 kts 156°
2026-05-06 05:22 36.19851 -81.64816 20980 ft 390 kts 156°
2026-05-06 05:22 36.17478 -81.63218 20452 ft 386 kts 156°
2026-05-06 05:22 36.15130 -81.61638 19929 ft 383 kts 156°
2026-05-06 05:23 36.12812 -81.60079 19642 ft 374 kts 156°
2026-05-06 05:23 36.10572 -81.58572 19391 ft 369 kts 156°
2026-05-06 05:23 36.06070 -81.55553 18896 ft 370 kts 156°
2026-05-06 05:24 36.03789 -81.54026 18656 ft 374 kts 156°
2026-05-06 05:24 36.01499 -81.52493 18392 ft 372 kts 156°
2026-05-06 05:24 35.99215 -81.50964 17699 ft 376 kts 156°
2026-05-06 05:24 35.96928 -81.49432 17300 ft 369 kts 156°
2026-05-06 05:25 35.94697 -81.47935 16937 ft 359 kts 156°
2026-05-06 05:25 35.92523 -81.46479 16315 ft 355 kts 156°
2026-05-06 05:25 35.90365 -81.45037 16024 ft 350 kts 156°
2026-05-06 05:25 35.88225 -81.43609 15766 ft 348 kts 156°
2026-05-06 05:26 35.86098 -81.42192 15480 ft 349 kts 156°
2026-05-06 05:26 35.83990 -81.40787 15108 ft 346 kts 156°
2026-05-06 05:26 35.81885 -81.39382 14487 ft 342 kts 156°
2026-05-06 05:26 35.79790 -81.37987 13821 ft 339 kts 156°
2026-05-06 05:27 35.77769 -81.36632 13616 ft 322 kts 156°
2026-05-06 05:27 35.75861 -81.35296 13242 ft 313 kts 155°
2026-05-06 05:27 35.73977 -81.33961 12674 ft 310 kts 155°
2026-05-06 05:27 35.72124 -81.32635 12197 ft 306 kts 155°
2026-05-06 05:28 35.70299 -81.31321 11740 ft 301 kts 155°
2026-05-06 05:28 35.68499 -81.30029 11247 ft 298 kts 155°
2026-05-06 05:28 35.66721 -81.28753 10749 ft 294 kts 153°
2026-05-06 05:28 35.65204 -81.27043 10224 ft 302 kts 128°
2026-05-06 05:29 35.64443 -81.24639 9755 ft 305 kts 101°
2026-05-06 05:29 35.64460 -81.22037 9291 ft 304 kts 87°
2026-05-06 05:29 35.64674 -81.19456 8775 ft 303 kts 86°
2026-05-06 05:29 35.64895 -81.16898 8406 ft 299 kts 86°
2026-05-06 05:30 35.65069 -81.14347 8082 ft 298 kts 89°
2026-05-06 05:30 35.65117 -81.11861 7705 ft 293 kts 102°
2026-05-06 05:30 35.64437 -81.09559 7329 ft 283 kts 125°
2026-05-06 05:30 35.63237 -81.07710 6983 ft 273 kts 142°
2026-05-06 05:31 35.61819 -81.06178 6635 ft 270 kts 146°
2026-05-06 05:31 35.60319 -81.04805 6288 ft 267 kts 149°
2026-05-06 05:31 35.58811 -81.03496 5962 ft 264 kts 150°
2026-05-06 05:31 35.57274 -81.02307 5643 ft 259 kts 155°
2026-05-06 05:32 35.55717 -81.01231 5387 ft 254 kts 156°
2026-05-06 05:32 35.54167 -81.00180 5162 ft 255 kts 156°
2026-05-06 05:32 35.52627 -80.99151 4943 ft 255 kts 156°
2026-05-06 05:32 35.51056 -80.98197 4726 ft 249 kts 159°
2026-05-06 05:33 35.49477 -80.97319 4482 ft 243 kts 161°
2026-05-06 05:33 35.47943 -80.96586 4248 ft 236 kts 166°
2026-05-06 05:33 35.46378 -80.96052 4055 ft 228 kts 170°
2026-05-06 05:33 35.44862 -80.95676 3986 ft 216 kts 173°
2026-05-06 05:34 35.43384 -80.95443 3990 ft 213 kts 176°
2026-05-06 05:34 35.41951 -80.95295 3979 ft 200 kts 178°
2026-05-06 05:34 35.40601 -80.95176 3974 ft 187 kts 178°
2026-05-06 05:34 35.39359 -80.95069 3946 ft 173 kts 178°
2026-05-06 05:35 35.38209 -80.94971 3797 ft 164 kts 178°
2026-05-06 05:35 35.37103 -80.94876 3599 ft 156 kts 178°
2026-05-06 05:35 35.36040 -80.94785 3390 ft 150 kts 178°
2026-05-06 05:35 35.35014 -80.94696 3188 ft 146 kts 178°
2026-05-06 05:36 35.34018 -80.94611 3008 ft 141 kts 177°
2026-05-06 05:36 35.33039 -80.94527 2827 ft 142 kts 178°
2026-05-06 05:36 35.32036 -80.94442 2641 ft 146 kts 177°
2026-05-06 05:36 35.31045 -80.94356 2457 ft 139 kts 177°
2026-05-06 05:37 35.30130 -80.94278 2298 ft 126 kts 177°
2026-05-06 05:37 35.29265 -80.94202 2110 ft 123 kts 176°
2026-05-06 05:37 35.28394 -80.94126 1930 ft 126 kts 176°
2026-05-06 05:37 35.27516 -80.94052 1774 ft 131 kts 176°
2026-05-06 05:38 35.26614 -80.93972 1603 ft 128 kts 176°
2026-05-06 05:38 35.25720 -80.93895 1425 ft 128 kts 176°
2026-05-06 05:38 35.24832 -80.93820 1256 ft 128 kts 176°
2026-05-06 05:38 35.23931 -80.93728 1083 ft 131 kts 175°
2026-05-06 05:39 35.23016 -80.93659 904 ft 132 kts 177°
2026-05-06 05:39 35.22110 -80.93583 755 ft 128 kts 176°
2026-05-06 05:39 35.21319 -80.93518 742 ft 93 kts 176°
2026-05-06 05:39 35.20820 -80.93474 739 ft 50 kts 176°
2026-05-06 05:40 35.20629 -80.93472 737 ft 18 kts 192°
2026-05-06 05:40 35.20511 -80.93516 735 ft 17 kts 204°
2026-05-06 05:40 35.20413 -80.93567 734 ft 14 kts 191°
2026-05-06 05:40 35.20316 -80.93565 733 ft 14 kts 174°
2026-05-06 05:41 35.20224 -80.93556 732 ft 13 kts 177°
2026-05-06 05:41 35.20155 -80.93570 732 ft 8 kts 228°
2026-05-06 05:41 35.20154 -80.93638 732 ft 8 kts 273°
2026-05-06 05:41 35.20166 -80.93703 731 ft 8 kts 296°
2026-05-06 05:42 35.20195 -80.93757 731 ft 7 kts 310°
2026-05-06 05:42 35.20201 -80.93766 731 ft 0 kts 310°